KTVLKJAC

Guest
Details From KTVL - South Lake Tahoe
To KJAC - Jackson Hole
Flight Number -
Tags decoded
Created
Modified
Stats Distance 516 nm / 956 km
Max Altitude 0 ft / 0 m
Waypoints 5
Social Downloads 1
Likes 0
Share VATSIM

Download

Looking for another format? Having issues loading an existing format? Contact us
Advertisement - Login to hide

Notes

Requested: KTVL LLC BAM MLD KJAC

Route

KTVL LLC BAM MLD KJAC

ID Type Via Altitude Latitude Longitude Leg Dist Tot Dist Heading (true) Name
O KTVL APT - 0 ft / 0 m 38.89388˚ -119.99533˚ - 0 nm - South Lake Tahoe
LLC VOR - 0 ft / 0 m 40.12525˚ -118.57758˚ 98 nm 98 nm 41° / 42° LOVELOCK VORTAC
BAM VOR - 0 ft / 0 m 40.56908˚ -116.92225˚ 80 nm 179 nm 70° / 71° BATTLE MOUNTAIN VORTAC
MLD VOR - 0 ft / 0 m 42.19989˚ -112.45122˚ 223 nm 403 nm 63° / 66° MALAD CITY VOR-DME
O KJAC APT - 0 ft / 0 m 43.60735˚ -110.73774˚ 113 nm 516 nm 41° / 42° Jackson Hole

Altitude Profile

Advertisement - Login to hide

Weather


0- 5 10 15 20 25 30 35+ Temperature / ° C

Clouds and Precipitation
Forecast for 2017-12-18 06:00 UTC. Updated 39 minutes ago

Ground ~20,000 ft ~40,000 ft Winds

KTVL

Details ICAO KTVL (TVL)
Name South Lake Tahoe
Region United States
Timezone America/Los_Angeles (UTC-8.0)
Stats Elevation 6,264 ft / 1,909 m (AMSL)
Location 38.893882° -119.995335°
Runways 1
Magnetic Variation 13.320° E

METAR

KTVL 180253Z AUTO 00000KT 10SM CLR M02/M08 A3018 RMK AO2 SLP244 T10221078 51021

Decode

TAF

KTVL 172347Z 1800/1824 VRB04KT P6SM FEW250 FM180600 20003KT P6SM FEW250 FM181900 09004KT P6SM FEW250

Decode

Departure Runways

ID Width Length Bearing (true) Bearing (mag) Surface Threshold Offset Overrun Length
18 150 ft / 46 m 8,556 ft / 2,608 m 192.88° 179.56° Asphalt 0 ft / 0 m 0 ft / 0 m
36 150 ft / 46 m 8,556 ft / 2,608 m 12.88° 359.56° Asphalt 2,037 ft / 621 m 0 ft / 0 m

KJAC

Details ICAO KJAC (JAC)
Name Jackson Hole
Region United States
Timezone America/Denver (UTC-7.0)
Stats Elevation 6,451 ft / 1,966 m (AMSL)
Location 43.607352° -110.737742°
Runways 1
Magnetic Variation 11.396° E

METAR

KJAC 180256Z 35003KT 10SM OVC039 M07/M08 A3014 RMK AO2 SNB05E43 SLP295 6//// T10671083 51009

Decode

TAF

TAF KJAC 172320Z 1800/1824 36006KT P6SM SCT025 BKN040 FM181700 20009KT P6SM VCSH BKN060 AMD LTD TO CLD VIS AND WIND

Decode

Destination Runways

ID Width Length Bearing (true) Bearing (mag) Surface Threshold Offset Overrun Length
01 151 ft / 46 m 6,285 ft / 1,916 m 19.50° 8.10° Asphalt 0 ft / 0 m 308 ft / 94 m
19 151 ft / 46 m 6,285 ft / 1,916 m 199.50° 188.10° Asphalt 0 ft / 0 m 305 ft / 93 m

Approach Navaids

Runway Type Ident Frequency Range Bearing (true) Bearing (mag) Slope Elevation
19 Localiser IJAC 109.10 MHz 18 nm / 33 km 199.36° 187.96° - 6,408 ft / 1,953 m (AMSL)
19 Glidescope IJAC 109.10 MHz 10 nm / 19 km 199.36° 187.96° 3.00° 6,441 ft / 1,963 m (AMSL)
19 DME IJAC 109.10 MHz 18 nm / 33 km - - - 6,415 ft / 1,955 m (AMSL)

Popular Alternatives